Tracking 19854 objects as of 22-Sep-2019
HD Live streaming from Space Station
objects crossing your sky now

DART


DART is no longer on orbit
DART is classified as:


NORAD ID: 28642
Int'l Code: 2005-014A
Perigee: N/A
Apogee: N/A
Inclination: N/A
Period: N/A
Semi major axis: N/A
RCS: N/A
Launch date: April 15, 2005
Source: United States (US)
Launch site: Pegasus launched from Western Range Air Space (WRAS)
Decay date: 2016-05-07
aabbcc
Your satellite tracking list
Your tracking list is empty




NASA's NSSDC Master Catalog

Two Line Element Set (TLE):
1 28642U 05014A   16128.19531642  .14402334  20870-5  17971-3 0  9992
2 28642  96.5498  58.0595 0014215 225.3624 135.5610 16.48897793612343
Source of the keplerian elements: AFSPC